| time (UTC) | temp F | wind direction | speed MPH | gust MPH | rain 1hr in | rain 24hr in | rain mn in | humidity % | barometer mb |
| 20260506033007 | 52 | 227 | 0.0 | 0.0 | 0.00 | 0.01 | 0.01 | 53 | 1001.9 |
| 20260506031508 | 51 | 251 | 0.0 | 0.0 | 0.00 | 0.01 | 0.01 | 56 | 1001.8 |
| 20260506030007 | 52 | 253 | 0.0 | 0.0 | 0.00 | 0.01 | 0.01 | 52 | 1001.6 |
| 20260506024507 | 52 | 314 | 0.0 | 0.0 | 0.00 | 0.01 | 0.01 | 54 | 1001.4 |
| 20260506023005 | 54 | 323 | 0.0 | 0.0 | 0.00 | 0.01 | 0.01 | 51 | 1001.2 |
| 20260506021504 | 54 | 328 | 0.0 | 9.0 | 0.00 | 0.01 | 0.01 | 50 | 1000.9 |
| 20260506020003 | 55 | 246 | 0.0 | 0.0 | 0.00 | 0.01 | 0.01 | 49 | 1000.9 |
| 20260506014507 | 55 | 266 | 0.0 | 1.0 | 0.00 | 0.01 | 0.01 | 51 | 1000.7 |
| 20260506013034 | 55 | 292 | 0.0 | 1.0 | 0.00 | 0.01 | 0.01 | 51 | 1000.6 |
| 20260506011534 | 56 | 257 | 0.0 | 0.0 | 0.00 | 0.01 | 0.01 | 50 | 1000.6 |
| 20260506010031 | 56 | 246 | 0.0 | 1.0 | 0.00 | 0.01 | 0.01 | 50 | 1000.5 |
| 20260506004529 | 57 | 222 | 0.0 | 10.0 | 0.00 | 0.01 | 0.01 | 48 | 1000.6 |
| 20260506003029 | 57 | 219 | 0.0 | 9.0 | 0.00 | 0.01 | 0.01 | 47 | 1000.5 |
| 20260506001528 | 57 | 246 | 1.0 | 7.0 | 0.00 | 0.01 | 0.01 | 47 | 1000.5 |
| 20260506000042 | 57 | 312 | 1.0 | 12.0 | 0.00 | 0.01 | 0.01 | 48 | 1000.6 |
| 20260505234526 | 58 | 255 | 1.0 | 9.0 | 0.00 | 0.01 | 0.01 | 47 | 1000.5 |
| 20260505233027 | 57 | 228 | 0.0 | 10.0 | 0.00 | 0.01 | 0.01 | 48 | 1000.5 |
| 20260505231529 | 57 | 309 | 0.0 | 12.0 | 0.00 | 0.01 | 0.01 | 49 | 1000.6 |
| 20260505230053 | 57 | 216 | 0.0 | 9.0 | 0.00 | 0.01 | 0.01 | 52 | 1000.7 |
| 20260505224554 | 57 | 252 | 0.0 | 9.0 | 0.00 | 0.01 | 0.01 | 53 | 1000.9 |
| 20260505223050 | 57 | 252 | 1.0 | 10.0 | 0.00 | 0.01 | 0.01 | 53 | 1000.9 |
| 20260505221557 | 56 | 276 | 1.0 | 11.0 | 0.00 | 0.01 | 0.01 | 57 | 1001.3 |
| 20260505220104 | 55 | 265 | 0.0 | 11.0 | 0.00 | 0.01 | 0.01 | 57 | 1001.3 |
| 20260505214556 | 56 | 272 | 1.0 | 8.0 | 0.00 | 0.01 | 0.01 | 57 | 1001.3 |
| 20260505213046 | 55 | 284 | 2.0 | 12.0 | 0.00 | 0.01 | 0.01 | 57 | 1001.5 |
| 20260505211614 | 54 | 211 | 0.0 | 10.0 | 0.00 | 0.01 | 0.01 | 60 | 1001.7 |
| 20260505210047 | 51 | 249 | 0.0 | 4.0 | 0.00 | 0.01 | 0.01 | 65 | 1002.0 |
| 20260505204557 | 51 | 292 | 1.0 | 11.0 | 0.00 | 0.01 | 0.01 | 65 | 1002.3 |
| 20260505203044 | 51 | 296 | 0.0 | 15.0 | 0.00 | 0.01 | 0.01 | 64 | 1002.1 |
| 20260505201543 | 51 | 254 | 1.0 | 10.0 | 0.01 | 0.01 | 0.01 | 66 | 1002.3 |
| 20260505200044 | 50 | 254 | 2.0 | 13.0 | 0.01 | 0.01 | 0.01 | 70 | 1001.9 |
| 20260505194541 | 49 | 286 | 0.0 | 9.0 | 0.01 | 0.01 | 0.01 | 77 | 1001.9 |
| 20260505193037 | 49 | 229 | 0.0 | 11.0 | 0.01 | 0.01 | 0.01 | 76 | 1002.5 |
| 20260505191535 | 52 | 288 | 1.0 | 9.0 | 0.00 | 0.00 | 0.00 | 63 | 1002.1 |
| 20260505190029 | 54 | 236 | 0.0 | 9.0 | 0.00 | 0.00 | 0.00 | 52 | 1001.9 |
| 20260505184538 | 54 | 297 | 1.0 | 9.0 | 0.00 | 0.00 | 0.00 | 49 | 1001.9 |
| 20260505183026 | 54 | 264 | 0.0 | 7.0 | 0.00 | 0.00 | 0.00 | 48 | 1001.7 |
| 20260505181527 | 55 | 224 | 2.0 | 14.0 | 0.00 | 0.00 | 0.00 | 47 | 1001.9 |
| 20260505180025 | 57 | 247 | 0.0 | 10.0 | 0.00 | 0.00 | 0.00 | 43 | 1001.9 |
| 20260505174535 | 58 | 231 | 2.0 | 15.0 | 0.00 | 0.00 | 0.00 | 40 | 1001.6 |
| 20260505173023 | 56 | 229 | 4.0 | 15.0 | 0.00 | 0.00 | 0.00 | 38 | 1001.9 |
| 20260505171531 | 55 | 282 | 0.0 | 10.0 | 0.00 | 0.00 | 0.00 | 44 | 1001.7 |
| 20260505170019 | 55 | 219 | 1.0 | 6.0 | 0.00 | 0.00 | 0.00 | 43 | 1002.0 |
| 20260505164520 | 56 | 207 | 0.0 | 10.0 | 0.00 | 0.00 | 0.00 | 44 | 1001.6 |
| 20260505163118 | 56 | 260 | 1.0 | 10.0 | 0.00 | 0.00 | 0.00 | 43 | 1001.4 |
| 20260505161550 | 55 | 215 | 2.0 | 9.0 | 0.00 | 0.00 | 0.00 | 45 | 1001.6 |
| 20260505153032 | 55 | 234 | 0.0 | 7.0 | 0.00 | 0.00 | 0.00 | 47 | 1001.4 |
| 20260505151544 | 55 | 296 | 0.0 | 7.0 | 0.00 | 0.00 | 0.00 | 50 | 1001.4 |
| 20260505140110 | 53 | 316 | 0.0 | 8.0 | 0.00 | 0.00 | 0.00 | 50 | 1001.9 |
| 20260505124524 | 53 | 290 | 0.0 | 4.0 | 0.00 | 0.00 | 0.00 | 46 | 1001.1 |
| 20260505123027 | 53 | 300 | 0.0 | 4.0 | 0.00 | 0.00 | 0.00 | 44 | 1000.9 |
| 20260505121522 | 53 | 288 | 0.0 | 8.0 | 0.00 | 0.00 | 0.00 | 45 | 1000.8 |
| 20260505120020 | 53 | 298 | 0.0 | 1.0 | 0.00 | 0.00 | 0.00 | 46 | 1000.7 |
| 20260505114514 | 53 | 297 | 0.0 | 4.0 | 0.00 | 0.00 | 0.00 | 46 | 1000.8 |
| 20260505113015 | 54 | 234 | 0.0 | 2.0 | 0.00 | 0.00 | 0.00 | 45 | 1000.8 |
| 20260505111511 | 54 | 317 | 0.0 | 5.0 | 0.00 | 0.00 | 0.00 | 44 | 1000.8 |
| 20260505101501 | 55 | 285 | 0.0 | 5.0 | 0.00 | 0.00 | 0.00 | 42 | 1001.1 |
| 20260505100101 | 56 | 288 | 0.0 | 1.0 | 0.00 | 0.00 | 0.00 | 41 | 1001.1 |
| 20260505094555 | 56 | 294 | 0.0 | 5.0 | 0.00 | 0.00 | 0.00 | 40 | 1001.3 |
| 20260505093054 | 56 | 257 | 0.0 | 7.0 | 0.00 | 0.00 | 0.00 | 39 | 1001.6 |
| 20260505091556 | 56 | 266 | 0.0 | 3.0 | 0.00 | 0.00 | 0.00 | 38 | 1001.6 |
| 20260505090050 | 57 | 278 | 0.0 | 9.0 | 0.00 | 0.00 | 0.00 | 37 | 1001.6 |
| 20260505084518 | 57 | 316 | 0.0 | 14.0 | 0.00 | 0.00 | 0.00 | 37 | 1002.1 |
| 20260505083019 | 57 | 259 | 0.0 | 8.0 | 0.00 | 0.00 | 0.00 | 36 | 1002.5 |
| 20260505081521 | 57 | 302 | 0.0 | 2.0 | 0.00 | 0.00 | 0.00 | 36 | 1002.6 |
| 20260505080014 | 58 | 319 | 0.0 | 9.0 | 0.00 | 0.00 | 0.00 | 35 | 1002.5 |
| 20260505074514 | 58 | 304 | 0.0 | 6.0 | 0.00 | 0.00 | 0.00 | 35 | 1002.7 |
| 20260505073013 | 58 | 286 | 0.0 | 6.0 | 0.00 | 0.00 | 0.00 | 35 | 1002.6 |
| 20260505071508 | 58 | 247 | 0.0 | 8.0 | 0.00 | 0.00 | 0.00 | 35 | 1002.9 |
| 20260505070008 | 58 | 284 | 0.0 | 8.0 | 0.00 | 0.00 | 0.00 | 34 | 1002.8 |
| 20260505064506 | 57 | 306 | 0.0 | 3.0 | 0.00 | 0.00 | 0.00 | 34 | 1002.8 |
| 20260505063004 | 57 | 292 | 0.0 | 6.0 | 0.00 | 0.00 | 0.00 | 33 | 1003.3 |
| 20260505061553 | 57 | 295 | 0.0 | 1.0 | 0.00 | 0.00 | 0.00 | 33 | 1003.2 |
| 20260505060051 | 58 | 277 | 0.0 | 7.0 | 0.00 | 0.00 | 0.00 | 32 | 1003.3 |
| 20260505054552 | 58 | 306 | 0.0 | 0.0 | 0.00 | 0.00 | 0.00 | 33 | 1003.5 |
| 20260505053047 | 58 | 288 | 0.0 | 4.0 | 0.00 | 0.00 | 0.00 | 32 | 1003.8 |
| 20260505051548 | 59 | 302 | 0.0 | 1.0 | 0.00 | 0.00 | 0.00 | 32 | 1003.9 |
| 20260505041551 | 60 | 292 | 0.0 | 1.0 | 0.00 | 0.00 | 0.00 | 30 | 1004.5 |
| 20260505040056 | 60 | 292 | 0.0 | 5.0 | 0.00 | 0.00 | 0.00 | 31 | 1004.4 |
| 20260505034605 | 60 | 294 | 1.0 | 6.0 | 0.00 | 0.00 | 0.00 | 31 | 1004.6 |